Temp
79 81 82 84 73 71 65 68 71 73 76 83 85 82 82 86 82 80 87 88 91 88 86 83 79 80 80 80 79 79 78 78 79 79 79 79 79 79 79 78 79 79 80 80 80 80 80 80 79
81 81 80 78 69 62 67 68 70 76 81 83 83 82 80 80 90 96 89 88 89 87 85 85 79 79 79 79 79 79 78 78 78 78 78 78 78 78 78 78 79 80 80 80 80 80 80 79 79
80 81 77 73 67 62 66 70 74 77 81 79 81 85 84 83 90 94 89 88 89 87 87 85 79 79 79 79 79 78 78 78 78 79 78 78 78 78 78 78 79 80 80 80 80 79 79 79 79
81 80 75 67 64 63 67 73 76 76 83 82 82 79 88 88 88 90 89 88 88 89 88 82 79 79 79 79 79 78 78 78 78 79 78 78 78 78 77 78 78 79 80 80 80 79 79 79 78
80 75 66 62 64 65 70 76 79 77 79 81 82 79 81 90 89 87 87 89 88 89 89 85 79 79 79 79 79 78 78 78 78 78 78 78 78 77 77 78 78 79 80 80 79 79 78 78 77
74 73 61 59 64 68 72 79 77 77 80 81 81 79 82 91 86 85 87 88 91 87 86 86 79 79 79 79 79 78 78 78 78 78 78 78 77 77 77 77 78 79 79 79 79 78 77 77 76
70 67 63 62 63 65 71 78 76 77 78 79 84 77 84 88 84 84 85 87 88 87 85 85 85 82 78 78 78 78 77 77 77 77 77 77 77 77 77 77 78 78 78 78 78 77 77 76 76
73 70 63 64 61 63 74 75 78 77 76 84 86 76 78 86 83 83 84 84 87 86 88 86 85 87 85 85 78 77 77 77 77 77 77 77 77 77 77 76 77 78 77 77 77 77 76 76 75
74 64 60 63 63 67 73 71 77 82 78 80 83 83 86 90 85 84 83 84 84 85 85 87 87 86 86 87 84 78 78 78 77 78 77 77 84 83 82 79 78 77 77 77 77 76 76 75 75
69 63 64 69 70 69 72 72 74 74 76 77 80 85 88 90 87 85 84 84 82 84 83 84 84 83 84 85 84 84 84 84 84 84 83 83 84 83 84 81 76 77 77 77 76 76 76 77 85
67 62 67 69 72 74 73 71 75 72 70 77 75 80 85 87 87 83 86 87 86 84 84 81 79 80 82 84 84 84 84 84 83 82 81 82 82 82 83 83 82 82 79 83 81 81 83 83 84
61 65 68 71 73 70 69 71 69 72 74 79 80 82 83 84 85 85 85 87 86 83 83 83 80 78 79 82 82 84 84 82 82 82 80 80 80 80 81 82 83 81 83 82 81 83 82 81 81
62 64 67 70 70 69 69 67 69 70 76 79 82 82 82 82 84 86 83 84 85 84 82 81 82 78 78 77 81 81 80 81 83 82 81 82 82 79 80 80 82 82 83 82 81 81 80 80 80
63 63 66 68 70 69 66 68 70 73 76 76 78 79 80 79 81 83 83 82 78 82 84 85 80 79 79 77 78 78 79 81 80 82 79 78 80 79 80 79 80 81 82 83 81 80 80 80 80
62 58 64 65 68 67 71 62 65 70 73 73 76 78 79 79 82 81 80 80 80 78 79 83 80 79 76 75 77 77 77 79 79 80 78 78 77 77 76 79 79 80 80 79 79 78 78 79 79
58 57 54 62 64 66 67 57 65 69 69 70 71 74 76 78 79 81 81 80 79 79 74 80 84 82 79 76 76 78 80 78 79 78 78 77 76 77 75 76 75 80 79 79 79 79 78 79 79
55 51 51 55 63 62 62 57 64 68 67 66 68 71 74 76 78 79 81 81 80 79 76 74 77 80 79 76 77 77 77 79 81 80 79 78 77 77 73 71 71 76 78 76 78 79 77 77 78
48 49 51 52 59 61 59 58 63 65 64 64 66 68 70 73 76 79 80 80 79 78 78 76 75 75 79 80 77 77 79 78 79 79 78 77 79 76 74 74 74 71 73 74 75 76 77 78 78
53 51 50 55 59 57 57 57 61 64 65 63 65 65 67 69 75 77 78 78 77 77 74 75 75 77 78 78 78 78 77 78 79 81 79 78 77 75 74 70 69 72 71 73 76 76 74 74 76
52 50 51 55 57 56 56 55 60 64 64 65 65 64 66 67 69 71 75 75 74 73 73 73 74 75 77 80 79 81 80 82 81 82 80 77 77 76 75 71 72 71 74 75 75 73 75 74 75
52 50 49 49 53 57 53 54 55 61 64 65 66 66 66 66 67 67 70 70 71 71 70 71 71 72 74 77 80 79 81 80 80 81 79 78 78 77 80 73 74 75 77 79 75 74 73 73 73
48 54 52 49 48 43 53 41 53 57 58 61 64 66 66 66 67 66 66 67 69 70 71 71 70 70 73 75 76 76 79 79 83 82 82 81 80 81 80 77 76 75 78 77 76 76 74 74 74
50 54 51 50 48 45 48 42 50 53 55 59 63 64 67 67 66 65 66 66 68 69 70 70 69 68 70 70 72 77 76 81 83 84 81 79 79 80 81 79 77 76 78 77 75 73 71 75 78
55 52 51 46 46 38 44 43 47 52 55 58 63 65 67 66 67 67 68 67 66 67 67 67 67 66 68 69 71 71 73 76 80 79 79 79 78 79 79 80 78 77 77 76 75 74 73 74 77
52 47 38 37 37 38 44 42 47 55 59 60 61 64 66 67 67 66 65 66 67 66 67 66 67 66 67 67 68 71 72 73 75 77 78 76 76 78 77 78 77 77 76 75 75 74 75 74 76
48 46 39 28 33 39 45 39 49 57 61 62 62 63 64 66 67 65 66 65 66 67 67 67 67 66 68 67 66 68 70 75 76 77 79 79 78 79 80 77 77 77 76 76 75 76 77 76 73
46 42 48 40 41 35 42 47 53 59 58 59 60 61 62 63 63 64 65 66 66 66 66 66 65 66 68 68 68 68 70 72 73 75 75 77 76 82 78 77 77 77 77 76 76 78 76 76 73
50 52 38 40 28 28 39 40 44 51 55 56 58 59 61 63 63 64 65 64 66 68 67 66 66 67 68 69 69 71 71 73 75 76 74 74 75 79 77 77 77 77 77 77 76 77 77 75 75
45 44 43 42 39 32 31 40 53 53 56 54 57 59 60 61 62 63 64 66 67 68 68 66 66 66 67 69 71 71 70 74 76 76 76 76 77 77 78 79 78 77 77 77 76 77 77 74 69
50 46 45 34 32 36 36 38 58 57 58 57 58 60 61 61 62 64 64 65 65 66 67 67 66 65 67 68 69 70 70 73 75 75 76 77 77 79 80 80 79 79 78 77 77 76 77 73 67
MSLP
1011.06 1011.06 1011.04 1010.20 1010.34 1009.76 1008.88 1008.82 1008.91 1008.03 1007.47 1006.98 1006.74 1006.58 1005.97 1005.61 1004.84 1004.09 1004.51 1004.88 1005.30 1005.70 1006.97 1008.29 1009.09 1009.50 1009.68 1009.86 1010.09 1010.30 1010.67 1010.94 1011.32 1011.73 1012.11 1012.40 1012.68 1013.11 1013.65 1014.00 1014.20 1014.52 1014.73 1014.90 1015.03 1015.09 1015.11 1015.26 1015.38
1011.14 1011.05 1010.94 1010.28 1010.04 1009.23 1008.68 1008.82 1008.42 1007.88 1007.58 1007.17 1006.45 1006.07 1005.95 1004.84 1004.73 1003.75 1004.20 1004.93 1005.58 1005.88 1006.83 1007.91 1008.87 1009.44 1009.69 1009.73 1010.02 1010.29 1010.65 1010.98 1011.29 1011.59 1011.99 1012.40 1012.79 1013.16 1013.55 1013.92 1014.23 1014.54 1014.70 1015.02 1015.18 1015.31 1015.35 1015.42 1015.49
1011.23 1011.21 1011.00 1010.17 1009.93 1008.97 1008.63 1008.36 1008.10 1007.98 1007.47 1007.13 1006.39 1005.89 1005.31 1004.85 1004.66 1004.03 1004.40 1004.79 1005.51 1006.28 1006.79 1007.64 1008.66 1009.48 1009.82 1009.98 1009.99 1010.22 1010.55 1010.98 1011.33 1011.70 1012.02 1012.45 1012.93 1013.22 1013.57 1013.93 1014.11 1014.36 1014.74 1014.97 1015.18 1015.43 1015.55 1015.58 1015.72
1010.96 1011.04 1011.40 1010.48 1009.56 1009.51 1008.99 1008.29 1008.22 1007.88 1007.09 1007.02 1006.76 1005.95 1005.39 1005.53 1005.08 1004.56 1004.90 1005.21 1005.38 1006.17 1006.55 1007.56 1008.52 1009.48 1009.76 1010.10 1010.15 1010.39 1010.58 1011.01 1011.37 1011.69 1012.02 1012.51 1012.85 1013.31 1013.64 1013.98 1014.25 1014.30 1014.60 1014.92 1015.10 1015.42 1015.54 1015.74 1016.03
1010.98 1011.01 1010.65 1010.12 1009.58 1009.43 1009.01 1008.39 1007.95 1007.62 1007.31 1006.81 1006.81 1005.96 1005.59 1005.33 1005.17 1004.93 1004.71 1005.23 1005.56 1006.22 1006.51 1007.53 1008.57 1009.34 1009.80 1010.12 1010.42 1010.61 1010.76 1011.10 1011.36 1011.62 1012.00 1012.43 1012.81 1013.26 1013.60 1013.91 1014.14 1014.27 1014.43 1014.71 1014.99 1015.28 1015.39 1015.78 1016.11
1010.62 1010.85 1010.42 1009.70 1009.37 1009.24 1008.76 1008.11 1007.88 1007.55 1007.11 1006.85 1006.42 1006.20 1005.58 1005.71 1005.36 1005.31 1005.35 1005.36 1005.52 1006.36 1007.10 1007.40 1008.58 1009.35 1009.93 1010.19 1010.48 1010.60 1010.79 1011.07 1011.31 1011.58 1011.80 1012.23 1012.66 1013.02 1013.30 1013.75 1014.08 1014.12 1014.39 1014.54 1014.78 1014.80 1014.99 1015.14 1015.67
1010.44 1010.29 1009.78 1009.81 1009.56 1009.04 1008.46 1007.99 1007.70 1007.39 1007.15 1006.78 1006.67 1006.12 1005.91 1005.58 1006.16 1006.13 1006.07 1006.16 1006.02 1006.45 1006.96 1007.55 1008.04 1008.89 1009.65 1010.13 1010.60 1010.77 1010.90 1011.09 1011.33 1011.60 1011.79 1012.30 1012.57 1012.84 1013.02 1013.53 1013.96 1014.14 1014.36 1014.41 1014.70 1014.83 1014.96 1015.08 1015.32
1010.55 1010.26 1009.49 1009.45 1009.25 1008.58 1008.21 1007.95 1007.79 1007.55 1007.09 1007.22 1006.93 1006.35 1006.09 1006.15 1006.54 1006.53 1006.57 1006.78 1006.69 1006.84 1007.02 1007.39 1007.90 1008.73 1009.31 1009.78 1010.34 1010.71 1011.06 1011.31 1011.58 1011.75 1012.06 1012.30 1012.77 1013.00 1013.06 1013.61 1013.96 1014.18 1014.37 1014.58 1014.73 1014.78 1014.98 1015.19 1015.25
1010.58 1010.04 1008.93 1008.80 1008.79 1008.42 1008.28 1007.97 1007.84 1007.69 1007.36 1007.30 1007.04 1006.84 1006.76 1006.43 1006.81 1006.60 1006.54 1006.89 1007.19 1007.10 1007.34 1007.67 1007.98 1008.33 1008.90 1009.49 1010.04 1010.58 1010.95 1011.46 1011.73 1011.84 1012.05 1012.49 1012.67 1013.02 1013.03 1013.27 1013.77 1014.21 1014.19 1014.42 1014.78 1014.81 1014.81 1015.04 1015.25
1010.08 1009.30 1008.90 1008.79 1008.48 1008.31 1008.36 1008.25 1008.24 1007.76 1007.16 1007.10 1007.10 1006.98 1006.74 1006.37 1006.42 1006.30 1006.24 1006.30 1006.85 1007.08 1007.35 1007.73 1008.27 1008.77 1009.06 1009.44 1009.92 1010.32 1010.54 1010.94 1011.40 1011.60 1011.77 1012.10 1012.57 1012.93 1013.05 1013.17 1013.83 1014.02 1014.20 1014.39 1014.63 1014.82 1015.00 1014.99 1014.62
1009.86 1008.99 1009.23 1008.80 1008.29 1008.12 1007.67 1008.03 1008.29 1007.94 1006.94 1007.16 1007.15 1006.75 1006.39 1006.15 1006.18 1006.05 1005.98 1005.92 1006.19 1007.00 1007.40 1007.82 1008.30 1008.82 1009.22 1009.22 1009.78 1010.07 1010.19 1010.49 1010.94 1011.36 1011.66 1011.78 1012.49 1012.84 1013.10 1012.98 1013.39 1013.74 1014.13 1014.11 1014.40 1014.69 1014.54 1014.25 1014.17
1010.19 1009.58 1009.22 1008.89 1008.46 1008.19 1007.90 1007.99 1008.17 1008.02 1007.13 1007.55 1007.30 1007.02 1006.62 1006.04 1005.79 1005.77 1005.59 1005.61 1005.95 1006.52 1007.15 1007.71 1008.22 1008.61 1009.07 1009.08 1009.45 1009.59 1009.95 1009.99 1010.27 1010.75 1011.35 1011.56 1011.95 1012.48 1012.57 1012.58 1012.90 1013.50 1013.54 1013.61 1013.91 1014.02 1014.06 1014.29 1014.20
1010.44 1009.82 1009.57 1009.19 1008.90 1008.38 1008.22 1007.88 1008.01 1007.72 1007.65 1007.54 1007.23 1006.95 1006.62 1006.00 1006.08 1005.73 1005.75 1005.63 1005.74 1006.14 1006.71 1007.03 1007.62 1008.08 1008.68 1009.15 1009.17 1009.27 1009.50 1009.62 1009.48 1010.04 1010.63 1011.06 1011.29 1012.01 1012.22 1012.47 1012.79 1013.07 1013.15 1013.28 1013.41 1013.71 1013.98 1014.11 1013.90
1010.54 1010.14 1009.71 1009.36 1008.94 1008.62 1008.15 1007.48 1007.99 1007.42 1007.51 1007.35 1007.25 1006.76 1006.70 1006.09 1006.10 1006.02 1005.81 1005.78 1006.02 1006.04 1006.33 1006.55 1006.70 1007.03 1007.88 1008.47 1008.84 1009.00 1009.31 1009.27 1009.74 1009.65 1010.22 1010.54 1010.95 1011.94 1012.20 1012.64 1012.89 1013.07 1013.10 1012.87 1013.01 1013.21 1013.48 1013.51 1013.37
1010.57 1010.41 1009.82 1009.42 1008.93 1008.40 1008.10 1007.54 1007.15 1007.93 1007.51 1007.32 1006.96 1006.68 1006.64 1006.35 1006.31 1006.44 1006.43 1005.96 1005.99 1005.89 1006.39 1006.08 1006.63 1006.93 1006.89 1007.53 1008.41 1008.78 1008.73 1008.89 1009.38 1009.50 1009.97 1010.42 1010.82 1011.59 1011.97 1012.10 1012.28 1012.53 1013.01 1013.27 1013.01 1012.80 1013.04 1013.12 1013.16
1010.77 1010.70 1009.63 1009.21 1008.97 1008.49 1008.34 1007.11 1008.15 1008.18 1008.02 1007.31 1007.47 1007.15 1006.63 1006.52 1006.44 1006.27 1006.25 1006.33 1006.29 1005.90 1005.75 1005.62 1005.85 1006.42 1006.88 1006.88 1007.15 1007.47 1007.96 1008.48 1008.49 1008.96 1009.34 1009.68 1010.39 1010.97 1011.72 1011.86 1011.65 1011.56 1012.67 1013.03 1013.18 1012.70 1012.69 1012.69 1012.51
1010.95 1010.12 1009.93 1009.36 1009.38 1008.84 1008.37 1007.73 1008.17 1008.36 1008.11 1007.69 1007.24 1007.33 1006.86 1006.53 1006.27 1006.28 1006.23 1006.20 1006.20 1006.23 1006.05 1004.55 1006.12 1006.66 1006.82 1006.67 1007.08 1006.93 1007.24 1007.63 1007.59 1008.25 1008.73 1008.98 1009.78 1010.18 1011.35 1011.65 1012.39 1011.85 1012.32 1013.27 1013.41 1012.11 1012.37 1012.17 1012.12
1010.65 1010.46 1010.16 1009.57 1009.47 1008.95 1008.55 1008.37 1008.20 1008.26 1008.32 1007.93 1007.50 1007.24 1007.16 1006.64 1006.29 1006.16 1006.16 1006.20 1006.09 1005.96 1006.37 1006.22 1006.27 1005.56 1005.86 1006.44 1006.56 1006.99 1007.02 1006.87 1007.05 1007.38 1007.77 1008.66 1009.17 1010.06 1010.99 1011.28 1011.56 1011.25 1012.03 1012.41 1012.91 1012.78 1012.02 1011.63 1011.74
1011.08 1010.83 1010.39 1010.01 1009.68 1009.39 1008.61 1008.33 1008.23 1007.97 1007.72 1007.53 1007.49 1007.25 1006.77 1006.72 1006.34 1006.31 1006.22 1006.29 1006.17 1006.05 1005.78 1005.98 1006.40 1006.32 1006.16 1006.21 1005.95 1005.80 1005.75 1006.15 1006.08 1006.27 1006.65 1007.62 1008.38 1008.95 1010.00 1010.16 1010.57 1010.06 1010.70 1011.05 1011.93 1012.49 1011.88 1011.31 1011.47
1011.10 1010.80 1010.41 1010.20 1010.01 1009.76 1008.71 1007.88 1007.42 1006.88 1006.83 1006.83 1006.88 1006.88 1006.85 1006.87 1006.59 1006.50 1006.28 1006.32 1006.29 1006.17 1005.96 1005.66 1005.66 1005.65 1005.67 1005.31 1004.98 1004.94 1004.83 1004.84 1005.51 1005.78 1006.01 1006.53 1007.04 1007.16 1007.42 1006.65 1008.48 1009.73 1010.15 1010.27 1011.31 1011.70 1011.27 1010.89 1011.02
1010.93 1010.83 1010.79 1010.71 1010.35 1009.80 1008.99 1006.97 1006.83 1006.62 1006.54 1006.58 1006.64 1006.91 1007.01 1007.06 1006.80 1006.81 1006.40 1006.43 1006.38 1006.13 1005.80 1005.43 1005.23 1005.13 1005.27 1005.07 1004.83 1004.68 1004.66 1004.74 1004.54 1004.71 1005.07 1005.22 1005.90 1006.04 1005.90 1005.18 1007.59 1009.00 1009.24 1009.09 1010.33 1010.63 1010.42 1010.08 1010.51
1010.65 1011.01 1011.11 1011.06 1010.83 1009.91 1010.07 1007.40 1006.76 1006.67 1006.25 1006.58 1006.70 1006.59 1006.71 1006.82 1006.99 1007.01 1006.95 1006.98 1006.81 1006.33 1006.03 1005.55 1004.98 1004.77 1004.48 1004.61 1004.43 1004.17 1003.84 1003.68 1003.07 1003.38 1003.87 1004.46 1004.49 1005.12 1005.21 1005.63 1006.92 1007.94 1008.32 1008.54 1008.99 1009.45 1009.46 1009.54 1009.62
1010.80 1011.18 1011.31 1011.29 1010.86 1010.60 1009.58 1009.22 1006.90 1006.96 1006.28 1006.33 1006.42 1006.58 1006.63 1006.64 1006.86 1007.06 1007.15 1007.13 1006.97 1006.51 1006.16 1005.59 1005.15 1004.52 1004.47 1004.51 1004.40 1004.05 1003.72 1003.13 1002.85 1002.65 1003.06 1003.35 1004.17 1004.63 1004.97 1005.22 1006.44 1006.95 1007.55 1007.65 1007.85 1008.45 1008.64 1008.65 1008.71
1011.19 1011.31 1011.25 1011.57 1011.16 1010.20 1009.27 1009.06 1006.99 1006.53 1006.10 1006.17 1006.00 1006.45 1006.59 1006.80 1007.00 1007.05 1007.16 1007.01 1006.73 1006.47 1006.14 1005.63 1005.06 1004.03 1003.69 1004.11 1003.69 1003.60 1003.13 1002.74 1002.19 1002.36 1002.74 1002.59 1003.16 1003.66 1004.15 1004.67 1005.59 1006.15 1006.25 1006.47 1007.00 1007.40 1007.76 1008.07 1008.25
1011.20 1011.39 1011.00 1010.84 1010.63 1009.51 1009.76 1009.03 1006.86 1006.63 1006.40 1006.34 1006.21 1006.06 1006.23 1006.58 1006.70 1006.89 1006.78 1006.47 1006.39 1006.14 1005.83 1005.62 1005.09 1004.42 1004.08 1003.63 1003.37 1002.99 1002.59 1002.15 1001.61 1001.72 1001.87 1002.13 1002.29 1002.80 1003.20 1003.64 1004.29 1005.04 1005.38 1005.46 1005.96 1006.59 1007.05 1007.62 1007.79
1011.30 1011.70 1011.56 1010.94 1010.56 1009.82 1009.99 1007.79 1006.40 1006.54 1006.38 1006.36 1006.28 1006.52 1006.39 1006.30 1006.54 1006.76 1006.65 1006.64 1006.21 1005.73 1005.46 1005.22 1004.73 1004.36 1003.91 1003.35 1002.79 1002.51 1001.94 1001.23 1000.89 1000.81 1000.56 1000.89 1001.15 1001.64 1002.30 1002.89 1003.33 1003.81 1004.11 1004.48 1005.31 1006.00 1006.40 1006.94 1007.46
1011.58 1011.94 1012.26 1011.91 1011.45 1010.78 1008.66 1007.28 1006.94 1005.90 1006.20 1006.25 1006.30 1006.37 1006.36 1006.40 1006.41 1006.37 1006.23 1005.92 1005.63 1005.47 1005.26 1004.91 1004.56 1004.03 1003.44 1002.77 1002.25 1001.51 1000.67 1000.24 999.75 999.79 999.79 999.84 1000.24 1000.70 1001.54 1002.14 1002.50 1002.70 1002.93 1003.81 1004.70 1005.20 1005.42 1006.20 1007.34
1011.42 1011.95 1012.46 1012.40 1011.41 1009.93 1007.92 1006.92 1005.91 1005.80 1005.74 1006.17 1006.13 1006.06 1006.24 1006.16 1005.82 1005.79 1005.70 1005.63 1005.25 1004.69 1004.47 1004.37 1004.00 1003.33 1002.78 1002.02 1001.36 1000.48 1000.00 999.41 999.18 999.15 998.87 999.09 999.66 1000.09 1000.77 1001.48 1002.09 1001.66 1002.45 1003.48 1004.24 1004.79 1004.93 1005.65 1006.88
1011.56 1011.57 1012.19 1012.29 1011.87 1010.48 1008.55 1006.24 1006.03 1005.83 1005.74 1006.01 1006.20 1006.28 1005.99 1005.76 1005.61 1005.43 1005.17 1005.14 1004.82 1004.27 1003.72 1003.36 1003.21 1002.87 1002.28 1001.45 1000.38 999.64 999.00 998.43 998.12 997.85 997.82 998.30 998.96 999.31 999.89 1000.61 1000.63 1001.13 1002.12 1003.13 1003.80 1004.16 1004.47 1005.32 1006.70
1010.87 1011.08 1011.46 1011.61 1011.50 1010.88 1009.57 1006.35 1005.92 1005.75 1005.84 1006.04 1005.88 1005.77 1005.82 1005.66 1005.23 1004.96 1004.76 1004.55 1004.32 1004.03 1003.41 1002.61 1002.27 1002.06 1001.52 1000.73 999.88 998.78 998.10 997.59 997.18 996.77 997.02 997.52 997.91 998.40 998.95 999.75 999.95 1000.68 1001.69 1002.56 1003.03 1003.75 1004.08 1005.12 1006.23
Wind_Speed
6 5 3 1 4 2 3 2 2 5 3 2 6 6 7 10 8 4 4 17 17 26 25 25 23 20 19 19 18 19 19 19 18 18 18 17 17 16 14 13 13 12 11 11 10 11 11 11 11
5 2 2 3 4 6 4 2 6 3 5 10 9 5 7 8 15 18 2 15 19 24 22 23 24 21 20 20 19 18 19 19 19 19 18 17 16 15 15 14 13 12 12 11 10 10 11 11 11
1 3 2 2 3 9 2 4 7 4 12 4 5 4 5 4 6 6 4 18 21 22 23 22 24 21 20 19 20 19 19 18 18 18 18 17 15 15 14 14 13 13 13 12 11 11 10 10 10
1 2 2 5 10 2 3 2 7 9 5 4 6 11 4 2 13 9 2 18 22 23 23 24 24 21 21 20 20 19 20 19 19 18 18 17 17 15 15 14 12 13 13 13 13 11 10 10 9
1 2 3 4 6 2 5 6 8 10 9 7 9 11 8 15 16 9 10 18 21 21 21 22 22 21 20 20 19 20 20 19 19 19 18 18 17 16 15 14 14 13 14 14 13 12 10 9 8
3 1 5 9 13 4 4 7 4 5 7 8 10 11 3 15 15 7 7 16 20 19 18 21 21 19 18 19 19 19 19 19 19 19 19 19 17 17 16 15 15 15 14 14 14 13 12 11 9
5 4 11 10 12 7 3 4 2 3 10 4 10 7 7 21 10 5 3 9 16 18 18 17 20 19 18 17 16 16 16 17 17 17 17 17 17 17 17 16 15 14 14 14 13 12 11 11 10
3 4 11 10 13 11 3 4 1 3 3 6 7 6 9 19 6 3 3 5 12 14 16 18 17 18 17 16 15 14 13 13 12 13 13 14 15 15 15 14 14 14 13 12 13 13 11 10 9
4 8 12 17 16 9 2 2 1 3 9 4 2 6 13 14 1 1 4 6 8 11 13 14 16 17 16 16 15 13 15 13 11 12 12 11 11 13 14 13 12 13 13 13 12 12 12 10 9
9 10 16 6 9 11 8 6 8 6 11 11 8 9 11 12 6 6 5 9 11 13 13 12 13 14 14 11 13 14 13 12 12 12 13 11 10 9 9 9 12 12 12 12 12 12 12 11 7
6 12 8 7 10 11 14 8 4 8 17 7 13 17 17 12 8 6 6 8 11 12 10 11 11 11 13 12 9 8 8 9 9 14 12 11 8 8 8 5 7 7 10 7 10 10 9 10 6
7 5 11 14 12 5 7 3 7 11 18 11 11 17 10 14 13 8 8 5 8 13 13 12 11 10 12 9 9 10 9 10 9 11 13 9 7 8 7 6 7 7 6 8 8 6 8 9 8
7 3 4 6 9 8 7 14 15 14 13 15 9 12 14 9 10 10 5 6 4 10 13 14 15 13 12 12 9 9 10 9 10 10 12 10 9 9 8 6 6 7 7 8 7 7 7 9 8
1 2 6 7 10 6 9 17 9 7 5 10 13 13 6 4 7 7 7 4 5 6 9 13 15 17 14 13 12 9 8 9 9 9 9 12 8 7 7 6 6 7 7 7 7 7 8 8 8
1 6 7 11 12 12 11 17 21 2 6 13 10 7 4 5 6 6 5 7 6 4 7 10 13 12 15 14 11 9 8 9 9 9 11 10 10 8 8 7 7 7 7 9 8 8 8 8 7
2 2 5 3 2 5 12 14 2 8 2 6 7 5 6 5 5 6 7 6 8 7 4 4 6 12 14 12 12 12 11 9 10 9 9 13 11 10 10 6 7 7 6 7 9 7 7 8 7
1 3 3 2 5 4 3 4 3 7 9 10 7 6 5 7 5 5 6 9 9 6 6 8 6 13 16 12 9 10 10 11 10 9 9 12 12 12 8 6 4 3 4 7 9 8 9 7 6
1 2 2 5 2 7 7 7 12 10 9 9 9 8 5 4 5 6 9 9 10 9 5 4 6 7 9 9 8 7 8 10 8 9 9 10 10 9 8 8 10 7 5 7 10 12 8 6 6
3 4 5 5 2 9 10 13 13 15 13 12 10 9 7 6 5 8 9 9 10 9 10 7 4 5 6 9 8 9 11 10 11 12 13 13 11 10 11 7 9 7 10 11 11 11 10 7 5
5 5 7 6 5 8 14 19 16 14 14 14 13 8 8 5 8 9 9 9 10 11 11 10 8 5 5 7 7 7 6 8 10 10 11 14 15 16 18 16 10 10 8 12 13 13 7 6 8
6 8 4 6 7 9 12 13 3 4 7 6 3 5 5 8 9 9 9 11 13 13 13 13 12 10 6 8 8 8 8 6 6 10 11 15 17 18 12 10 11 12 12 10 14 14 13 7 7
7 4 3 4 6 9 6 11 12 8 2 4 2 6 5 7 6 7 10 12 13 15 14 15 13 13 10 6 8 12 11 12 11 10 11 12 17 15 11 12 14 13 11 13 13 11 10 6 8
2 2 2 5 11 10 13 8 3 3 6 5 6 2 6 7 5 7 10 11 13 13 14 15 15 13 13 9 10 10 13 11 11 10 11 12 11 16 15 14 17 15 13 13 12 12 12 10 9
3 2 6 1 3 7 3 6 4 5 5 7 10 6 10 4 6 9 10 11 12 12 13 14 15 15 14 12 12 12 14 14 11 10 11 9 9 12 15 18 16 14 13 13 12 12 13 11 10
2 4 5 4 5 3 5 9 10 7 7 11 13 13 12 9 9 10 13 13 12 15 15 13 13 14 15 16 14 13 15 15 15 15 10 9 8 10 13 16 15 13 13 11 10 11 11 12 11
2 4 5 6 4 5 5 10 2 5 7 11 9 7 9 11 10 11 11 11 12 15 16 17 18 17 15 15 16 14 14 11 11 15 11 10 10 10 12 15 14 14 13 11 10 9 9 10 8
3 7 2 7 8 7 7 8 10 10 4 3 1 6 11 13 11 10 10 12 13 13 15 17 16 17 18 18 15 16 14 14 13 16 13 10 10 10 12 13 13 14 11 11 12 9 11 10 9
8 7 4 3 5 6 6 13 9 10 9 3 10 9 13 15 14 10 9 10 12 14 13 15 16 17 18 19 17 15 16 16 16 15 14 13 11 12 13 12 13 11 10 11 12 10 10 10 8
6 8 5 4 4 5 6 5 3 5 9 9 7 12 17 17 11 11 12 12 12 13 15 15 16 18 17 18 18 16 18 18 16 15 14 14 12 13 14 14 12 12 12 13 13 11 11 12 9
8 10 13 8 6 6 6 10 9 13 7 8 16 20 14 13 13 13 13 13 13 14 16 16 17 18 18 17 18 20 18 18 16 15 15 14 14 14 15 14 12 13 14 15 14 13 12 13 10
Wind_Direction
350 355 294 70 231 272 249 186 283 206 203 234 292 241 244 281 217 240 17 182 158 155 160 168 172 173 168 162 157 151 150 147 148 145 146 149 149 149 152 154 153 156 154 149 144 138 133 129 125
342 49 302 113 248 235 222 218 205 260 315 308 286 229 245 260 238 266 220 168 168 156 157 167 170 175 173 168 164 157 154 152 152 152 152 150 152 153 156 159 159 161 155 153 148 145 139 136 129
189 61 260 184 195 237 224 207 228 316 308 262 297 274 276 324 344 290 15 161 159 163 161 165 168 177 175 175 167 164 160 159 157 155 153 155 157 159 161 165 163 162 160 160 156 156 145 137 134
185 87 93 238 228 220 256 350 225 314 322 245 332 295 299 22 317 309 287 164 155 168 164 160 167 178 178 181 173 168 164 164 162 160 159 162 164 168 165 167 168 165 166 167 163 163 150 143 145
76 126 242 244 253 218 236 270 277 296 294 299 338 320 313 346 324 320 170 169 163 169 166 163 166 176 181 182 179 174 170 169 168 166 165 168 170 170 169 172 174 174 173 173 169 168 156 154 161
164 136 231 244 249 206 229 244 295 296 292 313 333 322 352 357 346 356 179 171 163 165 168 164 167 176 184 184 184 179 174 173 173 172 169 173 173 175 172 178 182 180 180 176 176 173 169 165 175
244 195 235 249 260 250 245 172 272 281 297 326 340 306 326 1 353 9 162 176 167 167 166 171 174 178 183 183 187 184 180 179 177 178 174 177 177 180 177 182 186 185 186 183 183 176 176 177 178
204 248 228 228 252 257 237 185 353 282 328 325 345 344 334 348 354 34 136 154 174 170 173 173 177 184 190 189 184 185 184 184 184 182 182 181 186 189 181 182 190 190 188 188 186 183 186 188 182
155 233 239 233 239 254 229 303 136 286 283 300 284 310 324 344 332 264 175 180 189 183 181 184 179 185 189 195 192 184 186 190 192 189 189 184 201 198 188 192 185 195 191 193 192 192 191 191 199
202 229 234 222 235 236 252 273 295 292 286 292 283 304 324 338 345 338 248 208 208 206 194 190 191 192 191 193 198 197 193 198 203 203 200 202 209 211 210 193 197 199 200 195 200 200 197 199 212
193 237 227 235 222 244 236 263 276 278 282 297 312 317 324 325 327 309 302 231 213 214 215 202 196 200 203 195 198 201 196 195 202 208 203 200 207 207 209 200 198 210 202 213 203 209 217 218 215
238 233 241 250 265 258 245 297 247 256 267 297 301 297 301 323 319 317 299 267 210 206 210 213 207 205 209 205 203 205 207 199 202 206 204 201 201 208 210 206 207 211 213 215 220 221 228 228 222
237 235 265 258 278 275 298 252 254 269 273 280 290 300 303 309 316 325 293 298 267 224 213 202 203 204 208 215 215 217 217 211 210 204 206 210 212 214 208 207 215 220 212 216 218 225 226 232 228
177 256 272 282 261 244 249 264 270 249 332 299 290 299 319 3 345 321 340 314 291 319 250 222 205 196 198 210 213 215 216 219 225 216 213 206 208 223 213 208 225 240 235 223 224 220 226 229 234
313 270 263 244 247 242 230 256 253 160 234 275 304 291 320 16 354 3 349 348 330 288 264 239 219 221 195 196 217 218 214 208 220 222 212 212 207 211 216 210 216 238 245 251 232 220 224 232 225
254 237 248 131 254 241 211 240 43 25 356 276 314 305 335 340 334 352 355 2 349 340 311 311 241 229 222 209 210 205 206 209 219 215 211 206 207 206 221 214 219 213 241 251 249 228 227 230 225
119 223 235 202 52 0 230 277 16 347 332 307 311 298 309 316 336 349 343 341 344 0 341 11 299 234 218 224 232 213 209 216 218 217 218 205 204 202 205 201 250 282 246 259 260 228 225 223 226
208 260 260 278 17 333 299 278 305 304 282 272 291 288 275 287 299 322 325 336 333 335 2 53 286 282 247 236 217 229 233 220 215 214 212 201 199 185 212 215 214 193 214 232 241 246 218 225 231
245 239 252 279 272 322 301 295 289 278 266 247 245 257 269 268 285 317 321 327 331 330 339 352 341 308 238 226 225 227 227 233 219 217 204 191 179 186 220 189 218 177 195 212 228 239 226 212 204
213 233 248 273 286 311 307 301 293 275 256 248 240 217 259 258 315 312 322 326 325 320 325 327 327 322 271 239 231 234 217 229 230 228 205 182 183 192 202 176 206 210 207 211 224 222 216 214 192
222 233 227 284 319 290 314 291 247 220 282 219 246 272 282 290 303 313 326 328 329 328 327 324 320 315 298 270 251 239 242 238 217 221 208 196 198 210 233 158 191 216 217 209 217 215 214 199 194
252 187 220 263 300 307 351 288 289 280 243 222 268 313 315 296 304 316 333 334 334 325 322 318 318 316 310 302 260 238 239 240 224 218 219 208 199 219 196 186 200 208 209 213 209 209 210 195 199
130 212 241 279 288 303 262 255 286 220 234 184 347 310 319 327 332 332 334 335 324 325 321 316 310 308 304 299 269 254 242 244 243 232 224 205 200 206 204 200 207 203 210 210 204 197 199 201 207
121 179 288 236 253 247 217 247 187 214 220 230 300 292 322 338 350 342 337 332 325 322 316 314 310 306 309 302 288 258 252 242 238 225 224 208 194 196 205 201 204 205 207 201 197 200 199 206 207
153 342 305 253 204 278 134 285 255 225 225 263 305 309 324 324 337 336 334 333 334 331 326 316 307 298 302 301 287 265 249 245 232 229 214 205 202 197 201 194 193 201 204 189 191 194 197 200 203
290 233 263 280 257 301 226 249 207 195 264 285 288 317 332 344 342 326 325 326 330 330 329 321 307 293 299 296 285 273 255 243 237 234 227 218 211 211 198 197 190 192 188 180 185 194 195 190 193
128 214 352 260 252 268 240 257 258 257 228 289 0 351 352 339 329 324 322 326 330 334 333 327 312 295 297 295 283 275 262 246 238 234 222 216 204 199 194 192 189 186 169 175 184 194 182 182 189
229 141 192 192 249 255 256 277 257 284 298 309 322 323 330 332 326 319 323 324 321 326 330 333 322 306 305 298 287 277 264 245 233 227 218 208 197 193 184 188 194 162 164 179 181 184 172 180 187
192 213 204 259 230 266 297 261 273 269 299 302 313 327 323 325 328 312 317 315 316 320 322 330 328 315 316 308 297 281 267 247 232 224 217 207 193 183 183 191 173 166 172 179 182 182 174 177 172
237 238 215 230 211 237 280 271 285 277 298 312 308 314 319 308 311 305 305 308 311 319 318 320 323 318 311 308 304 298 274 248 231 219 214 201 196 189 188 190 173 173 178 177 177 179 174 175 165